Flag for Colombia Weather past 2 weeks in Barranquilla, Colombia

Now
79 °F

Clear.


Feels Like: 82 °F
Forecast: 78 / 87 °F
Wind: 12 mph from Northeast

Location: Barranquilla / Ernestocortissoz

Current Time: Jan 30, 2015 at 6:24:49 AM

Latest Report: Jan 30, 2015 at 6:00 AM


Visibility: 10 mi

Pressure: 29.80 "Hg

Humidity: 79%

Dew point: 72 °F

Location of BarranquillaLocation

Historic Weather in Barranquilla — Graph

°F

Barranquilla temperature yesterday

Maximum temperature yesterday: 86 °F (at 11:00 AM)
Minimum temperature yesterday: 77 °F (at 6:00 AM)
Average temperature yesterday: 81 °F

Past Weeks' High & Low Weather Summary

 TemperatureHumidityPressure
High91 °F (Jan 26, 12:00 PM)100% (Jan 15, 5:00 AM)29.95 "Hg (Jan 15, 5:00 AM)
Low75 °F (Jan 22, 6:00 AM)44% (Jan 24, 3:00 AM)29.75 "Hg (Jan 26, 3:00 AM)
Average81 °F82%29.85 "Hg
* Reported Jan 15 5:00 AM — Jan 30 5:00 AM, Barranquilla, Weather by CustomWeather, © 2014

Note: Actual official high and low records may vary slightly from our data, if they occured in-between our weather recording intervals... More about our weather records

Advertising

Barranquilla weather history for previous 24 hours

 ConditionsComfort  
Time TempWeatherWind HumidityBarometerVisibility
5:00 AM
Jan 30
79 °FClear.14 mph84%29.78 "Hg10 mi
4:00 AM79 °FClear.14 mph84%29.77 "Hg10 mi
3:00 AM79 °FClear.12 mph79%29.76 "Hg10 mi
2:00 AM79 °FClear.6 mph84%29.77 "Hg10 mi
1:00 AM79 °FClear.12 mph89%29.79 "Hg10 mi
12:00 AM79 °FClear.18 mph94%29.80 "Hg10 mi
11:00 PM
Jan 29
79 °FClear.18 mph89%29.81 "Hg10 mi
10:00 PM79 °FClear.18 mph89%29.81 "Hg10 mi
9:00 PM79 °FClear.18 mph89%29.80 "Hg10 mi
8:00 PM79 °FClear.18 mph89%29.79 "Hg10 mi
7:00 PM79 °FClear.18 mph89%29.78 "Hg10 mi
6:00 PM81 °FPassing clouds.13 mph74%29.77 "HgN/A
5:00 PM81 °FPassing clouds.21 mph79%29.76 "HgN/A
4:00 PM82 °FSunny.20 mph70%29.76 "Hg10 mi
3:00 PM86 °FSunny.16 mph59%29.77 "Hg10 mi
2:00 PM86 °FSunny.17 mph59%29.79 "Hg10 mi
1:00 PM86 °FSunny.14 mph59%29.81 "Hg10 mi
12:00 PM84 °FSunny.16 mph62%29.83 "Hg10 mi
11:00 AM86 °FSunny.16 mph59%29.86 "Hg10 mi
10:00 AM84 °FSunny.10 mph70%29.87 "Hg10 mi
9:00 AM82 °FPassing clouds.16 mph66%29.86 "HgN/A
8:00 AM81 °FPassing clouds.15 mph70%29.85 "HgN/A
7:00 AM79 °FScattered clouds.10 mph74%29.83 "HgN/A
6:00 AM77 °FPassing clouds.10 mph83%29.81 "HgN/A
Weather by CustomWeather, © 2014

See weather overviewHow to use our weather pages